Temperature
-3 -3 -3 -3 -3 -2 -2 -2 -2 -2 -1 -1 -1 -1 -0 -0 -0 -0 -0 0 0 0 0 0 0 0 -0 -0 -0 -0 -0 -0 -1 -0 -0 -0 -0 -0 -0 -0 -0 -0 -0
-4 -4 -4 -3 -3 -3 -3 -3 -3 -2 -2 -2 -1 -1 -1 -1 -1 -1 -1 -1 -1 -0 -0 -0 -0 -0 -1 -1 -1 -1 -1 -1 -1 -1 -1 -1 -1 -1 -1 -1 -1 -1 -1
-4 -4 -4 -4 -4 -4 -4 -3 -3 -3 -3 -2 -2 -2 -2 -1 -1 -1 -1 -1 -1 -1 -1 -1 -1 -1 -1 -1 -1 -1 -1 -1 -1 -1 -1 -1 -2 -2 -2 -1 -1 -1 -1
-5 -5 -5 -5 -5 -4 -4 -4 -4 -3 -3 -3 -3 -3 -3 -2 -2 -2 -2 -2 -2 -2 -1 -1 -1 -1 -1 -2 -2 -2 -2 -2 -2 -2 -2 -2 -2 -2 -2 -2 -2 -2 -2
-6 -5 -5 -5 -5 -5 -5 -4 -4 -4 -4 -4 -4 -4 -3 -3 -3 -3 -3 -3 -3 -2 -2 -2 -2 -2 -2 -2 -2 -2 -2 -2 -3 -3 -3 -3 -3 -3 -3 -3 -3 -3 -3
-6 -6 -6 -6 -6 -6 -5 -5 -5 -5 -4 -4 -4 -4 -4 -4 -4 -4 -4 -4 -3 -3 -3 -3 -3 -3 -3 -3 -3 -3 -3 -3 -3 -3 -3 -3 -3 -3 -3 -3 -3 -4 -4
-7 -7 -7 -6 -6 -6 -6 -6 -6 -5 -5 -5 -5 -5 -5 -5 -5 -5 -4 -5 -4 -4 -4 -4 -3 -3 -3 -3 -3 -3 -3 -3 -3 -3 -3 -3 -3 -3 -4 -4 -4 -4 -4
-7 -7 -7 -7 -7 -7 -7 -6 -6 -6 -6 -6 -6 -6 -5 -5 -5 -5 -5 -5 -5 -5 -4 -4 -4 -4 -4 -4 -4 -4 -4 -3 -3 -4 -3 -3 -3 -4 -4 -4 -4 -4 -5
-8 -8 -8 -8 -8 -8 -7 -7 -7 -7 -7 -7 -6 -6 -6 -6 -6 -6 -6 -6 -6 -5 -5 -5 -5 -4 -4 -4 -4 -4 -4 -4 -4 -4 -4 -4 -4 -4 -4 -5 -5 -5 -5
-9 -9 -9 -9 -9 -8 -8 -8 -8 -8 -8 -7 -7 -7 -7 -7 -7 -7 -7 -7 -6 -6 -6 -6 -5 -5 -5 -5 -5 -5 -5 -4 -5 -5 -5 -5 -5 -5 -5 -5 -5 -5 -6
-10 -10 -9 -9 -9 -9 -9 -9 -9 -9 -9 -8 -8 -8 -8 -8 -7 -7 -7 -7 -7 -7 -7 -7 -6 -6 -6 -5 -5 -5 -5 -5 -5 -5 -5 -5 -5 -6 -6 -6 -6 -6 -6
-10 -10 -10 -10 -10 -10 -10 -10 -10 -10 -9 -9 -9 -9 -9 -8 -8 -8 -8 -8 -8 -8 -8 -7 -7 -7 -6 -6 -6 -6 -6 -6 -6 -6 -6 -6 -6 -6 -6 -6 -6 -6 -6
-11 -11 -11 -11 -10 -11 -11 -11 -10 -10 -10 -10 -10 -10 -9 -9 -9 -9 -9 -9 -8 -8 -8 -8 -7 -7 -7 -7 -7 -7 -7 -7 -7 -6 -6 -6 -6 -6 -7 -7 -7 -7 -7
-12 -12 -11 -11 -11 -11 -11 -11 -11 -11 -11 -11 -11 -11 -10 -10 -10 -10 -9 -9 -9 -9 -9 -8 -8 -8 -8 -8 -7 -7 -7 -7 -7 -7 -7 -7 -7 -7 -7 -7 -7 -7 -7
-12 -12 -12 -12 -12 -12 -12 -12 -12 -12 -12 -12 -11 -11 -11 -11 -10 -10 -10 -10 -9 -9 -9 -9 -9 -8 -8 -8 -8 -8 -8 -8 -8 -7 -7 -7 -8 -8 -8 -8 -8 -8 -8
-13 -13 -13 -13 -13 -12 -12 -12 -12 -12 -12 -12 -12 -12 -11 -11 -11 -11 -11 -10 -10 -10 -10 -9 -9 -9 -9 -9 -9 -9 -8 -8 -8 -8 -8 -8 -8 -8 -8 -8 -8 -8 -8
-14 -14 -14 -14 -13 -13 -13 -13 -13 -12 -12 -12 -12 -12 -12 -12 -11 -11 -11 -11 -10 -10 -10 -10 -10 -10 -9 -9 -9 -9 -9 -9 -9 -9 -9 -8 -8 -9 -9 -9 -9 -9 -9
-14 -14 -14 -14 -14 -14 -14 -14 -14 -13 -13 -13 -12 -12 -12 -12 -12 -12 -11 -11 -11 -11 -11 -10 -10 -10 -10 -10 -10 -10 -10 -10 -10 -10 -9 -9 -9 -9 -9 -9 -9 -9 -9
-15 -15 -15 -15 -15 -15 -15 -14 -14 -14 -14 -14 -13 -13 -13 -13 -13 -12 -12 -12 -12 -12 -11 -11 -11 -11 -10 -10 -10 -10 -10 -10 -10 -10 -10 -10 -10 -10 -10 -10 -10 -10 -10
-15 -15 -15 -15 -15 -15 -15 -15 -15 -15 -14 -14 -14 -14 -14 -13 -13 -13 -13 -13 -13 -12 -12 -12 -11 -11 -11 -11 -11 -11 -11 -11 -10 -10 -10 -10 -10 -10 -10 -10 -10 -10 -10
-16 -16 -16 -16 -16 -16 -16 -16 -15 -15 -15 -15 -15 -15 -15 -14 -14 -14 -14 -13 -13 -13 -13 -12 -12 -12 -12 -12 -11 -11 -11 -11 -11 -11 -11 -11 -11 -11 -11 -11 -11 -11 -11
-16 -16 -16 -16 -16 -16 -16 -16 -16 -16 -16 -15 -15 -15 -15 -15 -15 -14 -14 -14 -14 -13 -13 -13 -13 -12 -12 -12 -12 -12 -12 -11 -11 -11 -11 -11 -11 -11 -11 -11 -11 -11 -11
-17 -17 -17 -17 -17 -17 -17 -17 -17 -16 -16 -16 -16 -16 -16 -15 -15 -15 -15 -14 -14 -14 -14 -13 -13 -13 -13 -12 -12 -12 -12 -12 -12 -12 -12 -11 -11 -12 -12 -12 -12 -12 -12
-17 -17 -17 -17 -17 -17 -17 -17 -17 -17 -17 -16 -16 -16 -16 -16 -16 -15 -15 -15 -15 -15 -14 -14 -14 -14 -13 -13 -13 -13 -12 -12 -12 -12 -12 -12 -12 -12 -12 -12 -12 -12 -12
-17 -17 -17 -17 -17 -18 -18 -17 -17 -17 -17 -17 -17 -17 -16 -16 -16 -16 -16 -16 -15 -15 -15 -15 -14 -14 -14 -14 -13 -13 -13 -13 -12 -12 -12 -12 -12 -12 -12 -12 -12 -13 -13
-18 -18 -18 -18 -18 -18 -18 -18 -18 -17 -17 -17 -17 -17 -17 -17 -17 -16 -16 -16 -16 -16 -15 -15 -15 -15 -14 -14 -14 -14 -13 -13 -13 -13 -13 -13 -13 -13 -13 -13 -13 -13 -13
Wind_Speed
2 2 2 2 3 2 3 3 4 4 4 4 4 4 4 4 4 4 5 6 6 6 6 7 7 6 6 6 5 5 5 5 7 5 4 4 4 5 6 6 7 8 8
2 2 2 2 2 3 3 3 4 4 4 5 4 4 5 5 5 5 5 6 7 8 8 8 8 7 7 6 6 7 6 6 6 7 5 4 5 5 5 5 6 7 8
2 2 3 3 3 3 4 4 4 3 4 5 5 5 5 5 5 5 5 6 7 8 8 8 9 8 8 7 7 7 6 5 5 6 6 4 3 4 4 4 5 5 6
2 2 3 3 4 4 4 4 4 4 4 5 5 5 5 5 5 6 6 6 6 6 8 8 9 10 10 9 9 8 7 6 6 6 6 4 4 3 4 4 4 4 4
2 3 3 4 4 4 4 4 4 4 4 4 5 5 5 5 5 6 6 6 6 6 7 8 9 11 12 11 9 8 8 7 7 6 6 5 5 4 5 5 6 4 4
3 3 4 4 4 4 4 4 4 4 4 4 4 5 5 5 8 9 7 6 6 7 7 7 9 10 12 13 14 13 13 11 10 9 7 8 8 7 6 6 5 4 4
3 4 4 4 4 4 4 4 4 4 4 4 5 5 6 7 9 10 9 6 6 7 7 7 7 9 10 9 11 13 14 16 15 11 10 10 9 9 8 8 7 7 5
4 4 5 4 5 5 5 5 5 4 4 5 5 6 6 7 9 10 10 6 6 7 7 7 8 7 9 9 9 9 10 11 12 10 10 10 9 9 10 9 8 5 3
4 5 5 5 5 5 5 5 5 5 5 5 5 5 6 7 9 9 9 4 5 6 7 7 7 6 10 11 9 9 9 9 11 13 13 12 13 12 10 6 5 5 4
6 6 5 5 5 5 6 6 5 5 5 6 6 5 6 6 10 10 9 4 5 5 5 7 9 9 10 11 8 9 10 9 7 8 9 9 9 10 12 9 7 6 4
6 6 6 5 5 5 5 5 5 5 5 5 6 6 5 7 9 11 10 5 5 5 5 5 6 9 10 11 9 7 10 8 7 7 6 5 6 6 7 8 8 7 6
6 6 6 6 6 5 5 5 5 5 5 5 5 6 5 6 8 9 11 10 8 5 6 5 6 9 10 10 8 8 10 7 4 5 5 5 5 5 6 7 8 7 6
6 6 6 6 6 6 5 5 5 4 4 5 5 5 6 5 6 10 11 11 10 6 6 9 9 10 9 7 8 9 7 4 5 5 6 5 5 5 4 4 5 4 4
6 6 6 6 6 6 5 5 4 4 4 5 5 6 6 5 5 5 5 7 8 7 6 8 9 8 7 7 6 5 4 5 5 6 5 4 4 4 4 4 4 4 3
6 6 6 6 6 5 6 5 6 5 6 6 5 5 5 5 7 10 7 5 4 5 5 3 2 3 3 3 3 3 4 4 4 4 4 4 4 4 4 4 4 4 4
6 6 5 5 5 5 6 7 9 10 12 12 11 8 7 9 12 12 12 11 10 8 5 2 3 3 4 4 4 4 4 4 4 4 5 5 5 5 5 4 4 4 4
5 6 5 5 5 6 6 6 7 9 11 11 12 11 11 11 11 11 11 11 9 7 4 3 3 4 4 4 4 4 4 4 3 4 5 5 5 5 5 4 4 4 4
5 6 6 5 5 6 6 6 6 7 7 7 9 11 12 12 11 11 10 8 5 4 2 3 3 3 3 3 3 3 3 3 3 4 4 4 5 5 5 5 5 5 5
5 5 5 5 5 5 6 6 6 6 6 6 6 7 11 11 11 10 8 3 3 3 3 3 3 3 2 2 3 3 3 4 4 4 4 4 5 5 5 5 5 6 5
5 8 7 5 5 5 5 6 6 6 5 5 5 6 6 6 5 5 4 3 3 3 3 3 3 3 2 3 3 2 3 3 4 4 4 4 4 5 5 5 5 5 4
4 6 9 6 5 5 5 5 6 5 5 5 5 7 9 5 4 4 4 4 4 4 4 3 3 3 2 2 2 3 3 3 4 4 4 4 4 4 4 5 5 5 4
4 4 4 5 5 5 5 5 5 5 6 6 6 7 10 6 4 4 4 5 4 4 3 3 3 3 2 2 2 3 3 3 3 4 4 4 4 4 4 4 4 4 4
3 4 5 5 5 7 7 5 5 5 5 6 6 5 5 5 5 5 5 5 5 4 4 4 3 3 4 4 4 3 4 4 4 4 4 4 4 5 5 5 5 5 5
3 4 5 5 5 5 5 6 5 6 6 5 5 5 5 5 5 6 6 5 4 5 5 5 5 5 5 5 6 6 7 7 7 7 7 6 5 5 5 5 6 6 6
3 4 5 5 5 5 5 6 6 6 6 6 6 6 5 5 6 6 5 5 5 5 6 6 6 6 7 7 7 8 8 9 8 7 7 6 6 6 5 5 5 5 5
3 4 4 4 5 5 5 6 6 6 6 6 6 6 6 6 6 6 6 5 5 5 6 6 8 8 9 9 9 10 10 10 10 9 8 6 6 6 5 5 6 6 6
Wind_Direction
331 313 302 288 284 282 275 272 268 267 268 258 241 242 248 250 247 237 235 224 224 225 220 217 219 215 212 211 211 213 212 204 226 247 245 230 226 238 255 252 251 246 245
324 320 310 306 297 291 286 278 272 266 271 265 250 244 244 248 247 239 243 231 224 228 225 221 223 219 216 214 212 216 216 210 214 233 237 226 226 228 236 246 254 244 240
325 325 318 319 314 303 297 293 283 278 285 274 252 246 247 246 248 245 241 242 235 232 227 224 224 217 220 220 218 219 220 222 213 219 229 227 226 226 225 247 252 248 244
321 318 311 310 306 303 302 300 295 285 280 274 257 252 252 252 253 251 246 243 245 245 236 229 226 221 221 219 220 219 215 217 215 215 223 222 220 214 207 219 244 234 245
322 316 309 309 310 310 311 309 304 296 289 280 264 259 257 252 251 251 247 244 241 246 247 238 234 232 230 226 224 218 211 215 215 217 222 226 222 212 216 217 231 238 246
315 312 315 316 315 314 312 310 310 305 304 297 283 262 257 261 266 264 260 250 246 243 248 246 242 239 237 238 235 228 217 213 212 214 222 224 227 221 216 219 217 223 242
320 318 319 314 313 311 312 315 309 304 303 296 285 275 263 263 267 268 267 261 251 248 247 246 247 244 240 232 236 236 234 229 223 214 216 223 222 211 206 212 213 217 235
321 319 319 316 312 314 313 310 306 300 296 291 287 280 275 271 271 271 272 263 255 253 251 249 245 244 238 231 226 227 229 229 232 229 218 221 219 209 204 208 211 219 234
320 316 314 310 307 310 308 305 300 298 298 292 289 287 286 282 276 274 276 262 259 259 257 257 250 240 244 241 228 221 225 230 237 236 235 232 227 222 209 189 189 200 227
318 315 311 306 301 300 299 299 300 300 298 297 295 292 286 285 281 277 275 259 259 262 264 263 255 250 245 245 228 214 221 225 220 225 232 233 226 216 210 200 192 201 213
317 317 317 314 307 300 299 301 302 302 303 300 298 296 291 288 288 283 276 263 254 257 257 259 258 257 254 250 244 224 229 226 210 209 212 214 211 208 209 211 204 201 206
318 317 316 315 313 312 307 305 304 301 299 298 299 302 296 293 293 290 284 276 268 254 255 257 256 257 257 253 247 238 237 227 198 196 204 211 213 212 210 211 210 214 220
318 316 313 314 314 314 307 303 303 299 296 298 296 296 298 297 296 298 295 288 282 272 258 257 257 256 257 253 250 248 235 212 202 205 211 216 214 207 202 203 198 202 222
315 315 315 314 314 314 310 303 298 296 294 293 292 290 291 294 295 296 294 293 288 285 277 268 261 260 260 252 249 246 227 216 212 213 209 205 192 191 196 193 194 190 203
315 314 313 313 309 309 307 298 298 285 285 286 279 281 286 287 290 295 297 290 283 268 268 265 258 249 247 242 236 233 224 219 222 213 206 199 201 203 204 190 186 186 201
316 317 314 312 311 310 310 309 302 302 302 299 294 292 286 288 295 298 299 298 293 283 279 256 242 240 244 245 238 234 230 221 218 216 208 201 202 202 203 195 190 192 202
303 306 308 310 309 308 309 309 311 313 313 313 312 308 306 304 301 302 301 299 297 292 273 259 250 243 239 237 232 231 232 225 215 211 208 200 197 197 195 196 194 196 205
301 300 305 302 302 302 302 302 303 306 314 316 315 314 316 315 313 314 312 309 307 309 289 276 262 252 245 235 230 229 226 218 213 213 207 199 194 193 194 196 198 200 207
300 300 301 302 303 303 304 305 303 302 303 308 313 315 319 320 320 324 326 326 313 300 293 282 269 256 252 246 239 235 225 218 215 211 207 200 195 193 198 199 200 213 217
298 302 308 306 304 305 307 307 306 305 303 303 305 309 318 321 322 324 327 322 307 298 296 290 282 266 253 247 237 233 235 226 214 214 212 205 200 196 199 201 202 206 214
299 303 307 308 304 304 303 303 304 302 301 303 304 307 316 315 311 309 308 308 304 301 298 293 289 284 272 255 241 234 233 238 229 217 211 205 200 201 202 203 204 205 206
294 295 300 301 302 301 303 305 307 302 300 301 304 307 313 316 308 303 302 302 301 298 297 289 284 281 274 262 248 238 236 236 234 219 212 208 203 202 201 203 204 204 205
291 292 296 299 300 303 308 309 306 302 296 296 298 300 301 301 300 299 298 300 301 302 296 288 288 288 275 264 250 235 235 235 232 219 210 210 210 207 202 205 206 208 213
285 286 290 294 296 296 300 302 302 302 300 296 296 295 296 296 295 295 295 296 297 297 290 283 279 279 277 270 262 254 248 247 241 231 213 210 212 214 210 209 211 213 215
282 285 288 290 292 294 296 297 298 299 299 298 296 296 297 295 294 294 295 295 293 292 292 284 278 274 274 270 267 263 265 261 254 244 227 211 213 215 214 212 212 212 215
287 287 286 289 290 292 294 296 296 298 296 296 295 294 293 293 292 292 293 292 290 289 290 286 279 275 274 272 271 271 271 268 262 258 244 218 214 215 209 211 211 214 216
Height
1477 1476 1476 1475 1475 1475 1475 1475 1475 1475 1475 1476 1476 1477 1477 1478 1479 1480 1480 1481 1482 1484 1485 1486 1487 1489 1490 1492 1494 1495 1496 1498 1497 1498 1501 1503 1504 1505 1506 1507 1508 1508 1508
1474 1473 1473 1472 1471 1471 1470 1470 1470 1470 1471 1471 1471 1472 1472 1473 1473 1474 1475 1475 1476 1477 1478 1480 1481 1482 1484 1485 1487 1488 1490 1491 1492 1492 1494 1496 1497 1499 1500 1501 1502 1502 1503
1470 1470 1469 1468 1468 1467 1466 1466 1466 1465 1466 1466 1466 1466 1466 1467 1468 1468 1469 1469 1470 1471 1472 1473 1474 1475 1476 1478 1480 1481 1483 1484 1485 1486 1487 1489 1491 1492 1493 1494 1496 1496 1496
1467 1466 1465 1465 1464 1463 1462 1462 1461 1461 1461 1461 1461 1461 1461 1461 1462 1463 1463 1464 1464 1465 1466 1466 1467 1468 1469 1471 1472 1474 1476 1477 1478 1479 1480 1482 1483 1485 1487 1487 1488 1489 1489
1464 1462 1461 1461 1460 1459 1458 1457 1456 1456 1456 1456 1456 1455 1456 1456 1456 1457 1457 1457 1458 1458 1459 1460 1460 1461 1463 1464 1465 1466 1468 1469 1471 1472 1473 1474 1476 1477 1479 1480 1482 1482 1483
1461 1460 1459 1458 1456 1455 1454 1453 1452 1451 1451 1451 1450 1450 1450 1450 1451 1451 1452 1451 1452 1452 1452 1453 1454 1454 1455 1456 1458 1459 1461 1462 1463 1464 1465 1466 1467 1470 1472 1474 1475 1475 1476
1457 1456 1455 1454 1453 1451 1450 1448 1447 1446 1446 1445 1445 1445 1445 1445 1445 1445 1445 1446 1446 1446 1446 1446 1446 1447 1448 1449 1450 1451 1452 1454 1456 1457 1457 1458 1460 1462 1465 1466 1467 1468 1469
1454 1453 1452 1451 1449 1447 1446 1444 1443 1442 1441 1441 1440 1439 1439 1439 1439 1439 1439 1440 1439 1439 1439 1439 1439 1439 1441 1442 1443 1443 1444 1446 1448 1450 1451 1452 1454 1456 1458 1459 1461 1462 1464
1450 1449 1448 1447 1445 1443 1442 1440 1439 1438 1436 1436 1435 1434 1433 1433 1433 1433 1434 1433 1433 1433 1433 1433 1433 1433 1434 1435 1436 1436 1437 1439 1442 1444 1445 1447 1448 1450 1452 1454 1455 1456 1456
1447 1446 1445 1443 1442 1440 1438 1436 1435 1433 1432 1431 1430 1429 1428 1427 1427 1427 1428 1427 1427 1426 1426 1427 1427 1427 1428 1429 1429 1430 1431 1432 1435 1437 1438 1440 1441 1443 1445 1447 1448 1450 1450
1444 1443 1441 1440 1438 1436 1434 1433 1431 1429 1427 1426 1425 1424 1423 1422 1421 1422 1422 1422 1421 1421 1421 1421 1421 1421 1422 1423 1423 1424 1425 1427 1428 1430 1432 1433 1435 1436 1438 1440 1442 1444 1445
1441 1439 1438 1436 1434 1433 1431 1429 1427 1425 1423 1421 1420 1419 1418 1417 1417 1416 1416 1416 1416 1415 1415 1415 1415 1415 1416 1417 1418 1418 1420 1421 1422 1423 1425 1426 1427 1429 1432 1434 1436 1438 1439
1437 1435 1434 1432 1431 1429 1427 1425 1423 1421 1419 1417 1416 1414 1413 1412 1412 1411 1411 1410 1410 1410 1409 1409 1410 1410 1411 1411 1412 1413 1414 1415 1416 1417 1418 1419 1421 1423 1426 1428 1429 1432 1434
1434 1432 1430 1428 1426 1425 1423 1421 1419 1417 1415 1414 1412 1410 1409 1408 1407 1406 1406 1405 1404 1404 1404 1404 1404 1405 1405 1406 1406 1407 1408 1409 1410 1411 1412 1414 1416 1417 1419 1421 1423 1425 1427
1431 1429 1427 1425 1423 1421 1419 1417 1415 1414 1412 1410 1408 1406 1404 1403 1403 1402 1401 1400 1399 1399 1399 1398 1398 1398 1399 1400 1400 1401 1402 1403 1404 1406 1407 1408 1410 1412 1413 1416 1417 1419 1420
1427 1425 1423 1421 1419 1417 1415 1413 1411 1409 1407 1405 1403 1402 1400 1400 1399 1397 1396 1395 1395 1395 1395 1393 1393 1394 1394 1394 1395 1395 1397 1397 1399 1400 1401 1402 1404 1406 1408 1410 1411 1413 1415
1424 1422 1420 1418 1416 1414 1411 1409 1406 1404 1402 1400 1398 1397 1396 1395 1394 1393 1392 1391 1391 1391 1390 1389 1389 1389 1389 1389 1390 1391 1391 1393 1394 1395 1396 1397 1399 1401 1402 1404 1406 1408 1409
1421 1419 1417 1415 1413 1410 1408 1406 1403 1400 1397 1395 1394 1393 1392 1391 1390 1389 1388 1387 1386 1386 1386 1385 1385 1385 1385 1385 1385 1386 1387 1388 1389 1390 1391 1392 1394 1395 1397 1399 1401 1403 1404
1418 1416 1414 1412 1409 1407 1404 1402 1399 1397 1394 1392 1391 1389 1389 1387 1386 1386 1384 1383 1382 1382 1382 1382 1382 1381 1381 1381 1381 1382 1382 1383 1384 1385 1386 1388 1389 1391 1392 1394 1396 1398 1399
1414 1412 1411 1408 1406 1403 1401 1398 1395 1393 1391 1389 1387 1386 1385 1384 1382 1381 1380 1380 1379 1378 1378 1378 1378 1377 1377 1377 1378 1378 1378 1379 1380 1381 1382 1383 1385 1386 1388 1390 1391 1393 1394
1411 1409 1407 1404 1402 1399 1397 1395 1392 1390 1388 1386 1385 1383 1383 1381 1379 1378 1377 1376 1375 1375 1374 1374 1373 1373 1373 1373 1374 1374 1374 1374 1375 1376 1378 1379 1381 1382 1383 1385 1387 1388 1390
1407 1405 1403 1401 1398 1396 1394 1391 1389 1387 1385 1383 1382 1380 1379 1378 1376 1375 1374 1373 1372 1371 1371 1370 1370 1369 1369 1369 1370 1369 1370 1370 1371 1372 1373 1375 1376 1377 1379 1380 1382 1384 1385
1404 1402 1400 1398 1395 1393 1390 1388 1386 1383 1382 1380 1379 1377 1376 1375 1373 1372 1370 1369 1368 1367 1367 1366 1366 1365 1365 1365 1365 1365 1366 1366 1367 1368 1369 1370 1372 1373 1374 1376 1377 1379 1380
1400 1398 1396 1394 1392 1389 1387 1385 1383 1380 1379 1377 1375 1374 1373 1371 1370 1368 1367 1366 1364 1363 1363 1362 1361 1361 1361 1361 1361 1361 1362 1362 1363 1364 1365 1366 1367 1368 1370 1371 1373 1374 1375
1396 1394 1392 1390 1388 1386 1384 1382 1379 1377 1375 1373 1372 1370 1369 1367 1366 1364 1363 1362 1360 1359 1358 1358 1357 1356 1356 1356 1356 1357 1358 1358 1359 1360 1361 1361 1362 1364 1365 1367 1368 1370 1371
1393 1391 1389 1387 1385 1382 1380 1378 1376 1374 1372 1370 1368 1366 1365 1363 1362 1360 1359 1357 1356 1355 1354 1353 1353 1352 1352 1352 1352 1353 1353 1354 1354 1355 1356 1357 1358 1359 1361 1362 1363 1365 1366